A/2019 O2

Japanese version
Home page
Updated on September 29, 2022

---------------------------------------------------------------------

* Profile

Discovery Date July 24, 2019
Magnitude 20.5 mag
Discoverer Pan-STARRS 1 telescope (Haleakala)

* Pictures

* Orbital Elements

Epoch 2022 Jan. 21.0 TT = JDT 2459600.5
T 2023 Apr. 7.79977 TT                                  Rudenko
q   9.6826601            (2000.0)            P               Q
z  +0.0174071      Peri.  129.66366     -0.39169145     -0.53960068
 +/-0.0000005      Node    48.28731     -0.76985924     -0.25137079
e   0.8314529      Incl.   93.29380     +0.50387951     -0.80351966
H    9.5
From 218 observations 2019 July 24-2022 Feb. 4, mean residual 0".3.

* Magnitudes Graph

        H = 9.2  G = 0.15

---------------------------------------------------------------------

The orbital elements are published on M.P.E.C. 2022-C234.
The magnitudes graphs are made with Comet for Windows.

---------------------------------------------------------------------

Copyright(C) Seiichi Yoshida (comet@aerith.net). All rights reserved.